TimeCDT,TemperatureF,Dew PointF,Humidity,Sea Level PressureIn,VisibilityMPH,Wind Direction,Wind SpeedMPH,Gust SpeedMPH,PrecipitationIn,Events,Conditions,WindDirDegrees,DateUTC
12:15 AM,39.2,35.6,87,29.96,10.0,WSW,4.6,-,N/A,,Clear,250,2013-04-16 05:15:00
12:35 AM,37.4,33.8,87,29.97,10.0,West,3.5,-,N/A,,Scattered Clouds,270,2013-04-16 05:35:00
12:55 AM,37.4,32.0,81,29.97,10.0,West,3.5,-,N/A,,Clear,280,2013-04-16 05:55:00
1:15 AM,37.4,32.0,81,29.96,10.0,WNW,3.5,-,N/A,,Clear,290,2013-04-16 06:15:00
1:35 AM,37.4,30.2,75,29.97,10.0,West,3.5,-,N/A,,Clear,260,2013-04-16 06:35:00
1:55 AM,35.6,30.2,81,29.97,10.0,Calm,Calm,-,N/A,,Clear,0,2013-04-16 06:55:00
2:15 AM,35.6,30.2,81,29.97,10.0,Calm,Calm,-,N/A,,Clear,0,2013-04-16 07:15:00
2:35 AM,35.6,30.2,81,29.98,10.0,West,3.5,-,N/A,,Clear,270,2013-04-16 07:35:00
2:55 AM,35.6,30.2,81,29.99,10.0,West,3.5,-,N/A,,Clear,270,2013-04-16 07:55:00
3:15 AM,35.6,30.2,81,30.01,10.0,West,4.6,-,N/A,,Clear,270,2013-04-16 08:15:00
3:35 AM,35.6,28.4,75,30.00,10.0,West,3.5,-,N/A,,Clear,280,2013-04-16 08:35:00
3:55 AM,33.8,28.4,81,30.01,10.0,West,3.5,-,N/A,,Clear,280,2013-04-16 08:55:00
4:15 AM,33.8,28.4,81,30.02,10.0,West,4.6,-,N/A,,Clear,280,2013-04-16 09:15:00
4:35 AM,33.8,28.4,81,30.02,10.0,West,4.6,-,N/A,,Clear,270,2013-04-16 09:35:00
4:55 AM,33.8,28.4,81,30.03,10.0,West,4.6,-,N/A,,Clear,270,2013-04-16 09:55:00
5:15 AM,33.8,26.6,75,30.03,10.0,West,5.8,-,N/A,,Clear,280,2013-04-16 10:15:00
5:35 AM,33.8,26.6,75,30.03,10.0,West,4.6,-,N/A,,Clear,270,2013-04-16 10:35:00
5:55 AM,33.8,26.6,75,30.04,10.0,WSW,4.6,-,N/A,,Clear,250,2013-04-16 10:55:00
6:15 AM,32.0,28.4,87,30.06,10.0,West,5.8,-,N/A,,Clear,260,2013-04-16 11:15:00
6:35 AM,33.8,28.4,81,30.05,10.0,West,4.6,-,N/A,,Clear,270,2013-04-16 11:35:00
7:15 AM,33.8,28.4,81,30.08,10.0,West,4.6,-,N/A,,Clear,260,2013-04-16 12:15:00
7:35 AM,33.8,28.4,81,30.09,10.0,West,8.1,-,N/A,,Clear,270,2013-04-16 12:35:00
7:55 AM,33.8,28.4,81,30.11,10.0,WNW,8.1,-,N/A,,Clear,290,2013-04-16 12:55:00
8:15 AM,35.6,28.4,75,30.12,10.0,WNW,6.9,-,N/A,,Clear,300,2013-04-16 13:15:00
8:35 AM,35.6,28.4,75,30.12,10.0,WNW,11.5,17.3,N/A,,Clear,290,2013-04-16 13:35:00
8:55 AM,35.6,28.4,75,30.12,10.0,WNW,11.5,17.3,N/A,,Clear,290,2013-04-16 13:55:00
9:15 AM,37.4,28.4,70,30.13,10.0,NW,9.2,16.1,N/A,,Scattered Clouds,310,2013-04-16 14:15:00
9:35 AM,37.4,28.4,70,30.13,10.0,West,10.4,-,N/A,,Scattered Clouds,280,2013-04-16 14:35:00
9:55 AM,37.4,30.2,75,30.13,10.0,WNW,9.2,-,N/A,,Clear,290,2013-04-16 14:55:00
10:15 AM,37.4,30.2,75,30.14,10.0,NW,6.9,-,N/A,,Clear,320,2013-04-16 15:15:00
10:35 AM,39.2,30.2,70,30.15,10.0,NW,12.7,18.4,N/A,,Scattered Clouds,310,2013-04-16 15:35:00
10:55 AM,41.0,30.2,65,30.15,10.0,WNW,8.1,18.4,N/A,,Clear,300,2013-04-16 15:55:00
11:15 AM,41.0,30.2,65,30.15,10.0,NW,6.9,-,N/A,,Clear,310,2013-04-16 16:15:00
11:35 AM,41.0,30.2,65,30.16,10.0,NW,11.5,18.4,N/A,,Clear,320,2013-04-16 16:35:00
11:55 AM,42.8,30.2,61,30.18,10.0,WNW,10.4,-,N/A,,Scattered Clouds,300,2013-04-16 16:55:00
12:15 PM,42.8,30.2,61,30.19,10.0,West,12.7,-,N/A,,Scattered Clouds,260,2013-04-16 17:15:00
12:35 PM,42.8,30.2,61,30.19,10.0,WNW,8.1,-,N/A,,Clear,290,2013-04-16 17:35:00
12:55 PM,44.6,32.0,61,30.19,10.0,West,8.1,-,N/A,,Clear,270,2013-04-16 17:55:00
1:15 PM,44.6,30.2,57,30.19,10.0,WNW,11.5,-,N/A,,Clear,290,2013-04-16 18:15:00
1:35 PM,44.6,30.2,57,30.20,10.0,West,6.9,16.1,N/A,,Clear,280,2013-04-16 18:35:00
1:55 PM,44.6,30.2,57,30.19,10.0,NW,9.2,17.3,N/A,,Clear,310,2013-04-16 18:55:00
2:15 PM,46.4,30.2,53,30.18,10.0,WNW,11.5,17.3,N/A,,Clear,300,2013-04-16 19:15:00
2:35 PM,46.4,30.2,53,30.18,10.0,NW,9.2,16.1,N/A,,Clear,320,2013-04-16 19:35:00
2:55 PM,46.4,30.2,53,30.18,10.0,NNW,12.7,-,N/A,,Clear,330,2013-04-16 19:55:00
3:15 PM,46.4,30.2,53,30.19,10.0,NW,10.4,17.3,N/A,,Clear,310,2013-04-16 20:15:00
3:35 PM,46.4,28.4,50,30.19,10.0,NW,9.2,-,N/A,,Clear,320,2013-04-16 20:35:00
3:55 PM,46.4,28.4,50,30.20,10.0,NW,8.1,-,N/A,,Clear,310,2013-04-16 20:55:00
4:15 PM,48.2,28.4,46,30.21,10.0,NW,8.1,-,N/A,,Clear,320,2013-04-16 21:15:00
4:35 PM,48.2,28.4,46,30.20,10.0,NW,6.9,-,N/A,,Clear,320,2013-04-16 21:35:00
4:55 PM,48.2,28.4,46,30.20,10.0,NNW,8.1,-,N/A,,Clear,330,2013-04-16 21:55:00
5:15 PM,48.2,28.4,46,30.21,10.0,NNW,9.2,-,N/A,,Clear,330,2013-04-16 22:15:00
5:35 PM,48.2,26.6,43,30.21,10.0,North,9.2,-,N/A,,Clear,350,2013-04-16 22:35:00
5:55 PM,48.2,28.4,46,30.22,10.0,North,10.4,-,N/A,,Clear,360,2013-04-16 22:55:00
6:15 PM,48.2,26.6,43,30.22,10.0,North,9.2,-,N/A,,Clear,350,2013-04-16 23:15:00
6:35 PM,46.4,28.4,50,30.23,10.0,North,8.1,-,N/A,,Clear,10,2013-04-16 23:35:00
7:15 PM,46.4,28.4,50,30.23,10.0,North,9.2,-,N/A,,Clear,10,2013-04-17 00:15:00
7:35 PM,44.6,30.2,57,30.24,10.0,NNE,5.8,-,N/A,,Clear,20,2013-04-17 00:35:00
7:55 PM,42.8,30.2,61,30.25,10.0,NNE,6.9,-,N/A,,Clear,20,2013-04-17 00:55:00
8:15 PM,42.8,30.2,61,30.25,10.0,NE,4.6,-,N/A,,Clear,40,2013-04-17 01:15:00
8:35 PM,41.0,30.2,65,30.27,10.0,NE,5.8,-,N/A,,Clear,50,2013-04-17 01:35:00
8:55 PM,41.0,30.2,65,30.27,10.0,ENE,4.6,-,N/A,,Clear,60,2013-04-17 01:55:00
9:15 PM,41.0,30.2,65,30.28,10.0,NE,3.5,-,N/A,,Clear,50,2013-04-17 02:15:00
9:35 PM,41.0,28.4,61,30.28,10.0,ENE,4.6,-,N/A,,Clear,60,2013-04-17 02:35:00
9:55 PM,41.0,30.2,65,30.28,10.0,NNE,3.5,-,N/A,,Clear,30,2013-04-17 02:55:00
10:15 PM,41.0,30.2,65,30.29,10.0,North,3.5,-,N/A,,Clear,10,2013-04-17 03:15:00
10:35 PM,41.0,30.2,65,30.29,10.0,North,4.6,-,N/A,,Clear,10,2013-04-17 03:35:00
10:55 PM,41.0,30.2,65,30.29,10.0,NNE,4.6,-,N/A,,Clear,30,2013-04-17 03:55:00
11:15 PM,41.0,30.2,65,30.29,10.0,NNE,3.5,-,N/A,,Mostly Cloudy,20,2013-04-17 04:15:00
11:35 PM,39.2,32.0,75,30.30,10.0,East,6.9,-,N/A,,Mostly Cloudy,90,2013-04-17 04:35:00
11:55 PM,39.2,30.2,70,30.30,10.0,ENE,3.5,-,N/A,,Mostly Cloudy,60,2013-04-17 04:55:00